Content
SEND FEEDBACK

Daily
Averages
Monthly
Summary
United States of America

ANN ARBOR, MICHIGAN


Home > North America > United States > Michigan
Elevation: 231 meters     Latitude: 42 17N     Longitude: 083 43W

WEATHER
 
SELECT A DAY
Number of Records: 207,049;   Date Range: 1/1/95 - 10/22/14
 
SHARE

PRINT THIS DATA

[ ← Previous Day ]
WEATHER ALMANAC - 28 JANUARY, 2013
[ Next Day → ]
[ °F ]   °C
Weather ElementAverageHighLow
Temperature2.6 °C6.1 °C (3:53 pm)-1 °C (12:12 am)
Dewpoint2.1 °C6 °C (5:04 pm)-2 °C (12:12 am)
Humidity96.2 %100 % (5:45 am)92 % (12:53 am)
Barometer1014.9 hPa1020 hPa (12:53 am)1011.9 hPa (10:27 am)
Wind Speed12.7 km/h24.1 km/h (12:15 am)
Wind Gust38.9 km/h (12:15 am)
Weather ElementAverage
Visibility3.1 km
Wind DirectionSSW (207.5 °)

Weather ElementTotal
Precipitation16.76 mm
Heating Degree Days15.8 (Base 18.3)
Averaged from 57 records on 28 January, 2013
WEATHER CONDITIONS BREAKOUT
WIND DIRECTION BREAKOUT
WEATHER BY HOUR - 28 JANUARY, 2013
[ °F ]   °C
Local TimeTemperatureDewpointHumidityBarometerVisibilityWind DirectionWind SpeedGust SpeedPrecipitationEventsConditions
12:12 AM-1 °C-2 °C93 %1019.3 hPa4.8 kmSouth (170°)22.2 km/h33.3 km/h0.76 mmRainLight Freezing Rain
12:15 AM-1 °C-2 °C93 %1019.3 hPa4 kmSouth (170°)24.1 km/h38.9 km/h1.02 mmRainLight Freezing Rain
12:34 AM-1 °C-2 °C93 %1019 hPa4.8 kmSSE (160°)18.5 km/h31.5 km/h2.29 mmRainLight Freezing Rain
12:42 AM-1 °C-2 °C93 %1019 hPa4 kmSouth (170°)18.5 km/h31.5 km/h2.79 mmRainLight Freezing Rain
12:51 AM-1 °C-2 °C93 %1019 hPa4 kmSSE (160°)14.8 km/h3.56 mmRainLight Freezing Rain
12:53 AM-0.6 °C-1.7 °C92 %1020 hPa4.8 kmSSE (160°)16.7 km/h3.56 mmRainLight Freezing Rain
1:01 AM-1 °C-2 °C93 %1018.6 hPa4.8 kmSSE (160°)14.8 km/h0.25 mmRainLight Freezing Rain
1:18 AM-1 °C-2 °C93 %1018.3 hPa8 kmSSE (150°)22.2 km/h0.25 mmRainLight Freezing Rain
1:34 AM-1 °C-2 °C93 %1018.3 hPa8 kmSSE (160°)13 km/h0.25 mmOvercast
1:53 AM-0.6 °C-1.7 °C92 %1018.6 hPa8 kmSSE (150°)16.7 km/h0.25 mmOvercast
2:53 AM0 °C-1.1 °C92 %1017.6 hPa4.8 kmSouth (170°)9.3 km/h0.76 mmOvercast
3:12 AM0 °C-1 °C93 %1016.6 hPa4 kmSouth (180°)13 km/h0 mmOvercast
3:29 AM0 °C-1 °C93 %1016.6 hPa2.9 kmSouth (180°)9.3 km/h0 mmOvercast
3:49 AM0 °C-1 °C93 %1015.9 hPa1.9 kmSouth (170°)11.1 km/h0.25 mmSnowLight Snow
3:53 AM0 °C-0.6 °C96 %1016.9 hPa1.9 kmSouth (180°)11.1 km/h0.25 mmSnowLight Snow
4:10 AM1 °C0 °C93 %1015.6 hPa2.4 kmSouth (170°)11.1 km/h0 mmOvercast
4:51 AM1 °C0 °C93 %1014.9 hPa1.9 kmSouth (190°)13 km/h0 mmOvercast
4:53 AM0.6 °C0 °C96 %1015.9 hPa1.9 kmSouth (170°)9.3 km/h0 mmOvercast
5:12 AM1 °C0 °C93 %1014.6 hPa2.4 kmSouth (190°)11.1 km/hOvercast
5:45 AM1 °C1 °C100 %1013.9 hPa1.6 kmSSW (200°)13 km/hOvercast
5:53 AM0.6 °C0.6 °C100 %1014.9 hPa1.3 kmSouth (190°)11.1 km/hOvercast
6:53 AM1.1 °C0.6 °C96 %1013.9 hPa0.8 kmSSW (200°)9.3 km/h0.25 mmFogFog
7:53 AM1.1 °C1.1 °C100 %1013.5 hPa0.3 kmSSW (200°)11.1 km/hFogFog
8:53 AM1.7 °C1.1 °C96 %1013.2 hPa0.3 kmSSW (210°)11.1 km/hFogFog
9:53 AM3.3 °C3.3 °C100 %1012.9 hPa1.6 kmSW (220°)14.8 km/h0.25 mmRainLight Rain
10:27 AM4 °C4 °C100 %1011.9 hPa2.4 kmSW (220°)13 km/h0 mmOvercast
10:40 AM4 °C4 °C100 %1011.9 hPa1.9 kmSW (220°)14.8 km/h0 mmOvercast
10:53 AM4.4 °C3.9 °C97 %1012.9 hPa2.4 kmSW (230°)14.8 km/h0 mmOvercast
11:00 AM4 °C4 °C100 %1011.9 hPa1.9 kmSW (220°)18.5 km/hOvercast
11:09 AM4 °C4 °C100 %1012.2 hPa2.4 kmSW (220°)16.7 km/hOvercast
11:21 AM4 °C4 °C100 %1012.2 hPa1.6 kmSW (230°)14.8 km/hOvercast
11:42 AM5 °C4 °C93 %1011.9 hPa2.4 kmSW (220°)14.8 km/hOvercast
11:49 AM5 °C4 °C93 %1011.9 hPa1.9 kmSW (220°)18.5 km/hOvercast
11:53 AM5 °C4.4 °C96 %1012.5 hPa2.4 kmSW (220°)14.8 km/hOvercast
12:06 PM5 °C5 °C100 %1011.9 hPa1.9 kmSW (220°)14.8 km/hOvercast
12:53 PM5.6 °C5 °C96 %1011.9 hPa1.3 kmSW (220°)16.7 km/hOvercast
1:53 PM5.6 °C5.6 °C100 %1011.9 hPa0.8 kmSW (230°)14.8 km/hFogFog
2:53 PM5.6 °C5 °C96 %1011.9 hPa0.3 kmWSW (240°)14.8 km/hFogFog
3:53 PM6.1 °C5.6 °C97 %1012.2 hPa0.3 kmWSW (240°)13 km/hFogFog
4:53 PM6.1 °C5.6 °C97 %1013.2 hPa0.3 kmWSW (250°)11.1 km/hFogFog
5:04 PM6 °C6 °C100 %1012.9 hPa0.8 kmWest (270°)13 km/hFogFog
5:10 PM6 °C6 °C100 %1013.2 hPa2.9 kmWest (280°)14.8 km/hOvercast
5:17 PM6 °C6 °C100 %1013.2 hPa4 kmWest (280°)11.1 km/hOvercast
5:25 PM6 °C5 °C93 %1013.2 hPa1.9 kmWest (280°)9.3 km/hOvercast
5:40 PM6 °C6 °C100 %1013.5 hPa3.2 kmWest (280°)13 km/hOvercast
5:49 PM6 °C6 °C100 %1013.5 hPa6.4 kmWest (280°)14.8 km/hOvercast
5:53 PM5.6 °C5.6 °C100 %1014.2 hPa6.4 kmWest (280°)13 km/hOvercast
6:53 PM5 °C4.4 °C96 %1015.2 hPa8 kmWNW (290°)13 km/hOvercast
7:53 PM4.4 °C3.9 °C97 %1015.9 hPa4 kmNNW (330°)9.3 km/hOvercast
8:53 PM3.3 °C3.3 °C100 %1016.6 hPa3.2 kmNNW (330°)7.4 km/hOvercast
9:53 PM2.8 °C2.8 °C100 %1016.6 hPa3.2 kmNNW (340°)5.6 km/hOvercast
10:11 PM3 °C2 °C93 %1015.9 hPa2.9 kmNorth (10°)5.6 km/hOvercast
10:18 PM3 °C2 °C93 %1015.9 hPa3.2 kmNorth (350°)5.6 km/hOvercast
10:40 PM3 °C2 °C93 %1016.3 hPa4.8 kmCalmOvercast
10:53 PM2.8 °C2.2 °C96 %1016.6 hPa4.8 kmNorth (360°)7.4 km/hOvercast
11:40 PM2 °C2 °C100 %1016.3 hPa3.2 kmCalmOvercast
11:53 PM2.2 °C1.7 °C97 %1016.6 hPa2.9 kmNE (40°)5.6 km/hOvercast
Hourly data recorded from KARB, located 0 kilometers away from Ann Arbor, Michigan







STORIES FROM OUR PARTNERS